Location: Boullarre
(49.1305°N, 3.0047°E)
Time: 15:38:48
(UTC+00:00)

DMSP B5D2-2 - Pass Details

Date: 03 February 2023
Orbit: 788 x 805 km, 98.3° (Epoch: 26 March)

Event Time Altitude Azimuth Distance (km) Brightness Sun altitude
Rises 17:26:47 0° 16° (NNE) 3,334 7.0 -6.8°
Reaches altitude 10° 17:29:10 10° 20° (NNE) 2,397 6.2 -7.2°
Maximum altitude 17:34:25 62° 101° (ESE) 904 4.1 -8.0°
Drops below altitude 10° 17:39:37 10° 182° (S) 2,370 6.8 -8.8°
Sets 17:41:57 0° 186° (S) 3,294 7.6 -9.2°
